Time,TemperatureF,DewpointF,PressureIn,WindDirection,WindDirectionDegrees,WindSpeedMPH,WindSpeedGustMPH,Humidity,HourlyPrecipIn,Conditions,Clouds,dailyrainin,SoftwareType,DateUTC
2013-01-30 00:04:00,68.0,64.0,30.14,SSE,151,6.0,10.0,84,-99.99,,,-99.99,,2013-01-30 05:04:00,
2013-01-30 00:12:00,68.0,64.0,30.14,SSE,151,6.0,10.0,84,-99.99,,,-99.99,,2013-01-30 05:12:00,
2013-01-30 00:22:00,68.0,64.0,30.14,SSE,151,6.0,10.0,84,-99.99,,,-99.99,,2013-01-30 05:22:00,
2013-01-30 00:32:00,68.0,64.0,30.14,SSE,152,6.0,10.0,85,-99.99,,,-99.99,,2013-01-30 05:32:00,
2013-01-30 00:43:00,67.0,63.0,30.14,SE,144,4.0,6.0,86,-99.99,,,-99.99,,2013-01-30 05:43:00,
2013-01-30 00:52:00,67.0,63.0,30.14,SE,144,4.0,6.0,86,-99.99,,,-99.99,,2013-01-30 05:52:00,
2013-01-30 01:02:00,67.0,63.0,30.14,SSE,151,4.0,7.0,87,-99.99,,,-99.99,,2013-01-30 06:02:00,
2013-01-30 01:12:00,67.0,63.0,30.14,SSE,151,4.0,7.0,87,-99.99,,,-99.99,,2013-01-30 06:12:00,
2013-01-30 01:22:00,67.0,63.0,30.14,SSE,156,5.0,7.0,87,-99.99,,,-99.99,,2013-01-30 06:22:00,
2013-01-30 01:32:00,67.0,63.0,30.14,SSE,156,5.0,7.0,87,-99.99,,,-99.99,,2013-01-30 06:32:00,
2013-01-30 01:42:00,66.0,62.0,30.14,SE,144,5.0,7.0,87,-99.99,,,-99.99,,2013-01-30 06:42:00,
2013-01-30 01:52:00,66.0,62.0,30.14,SE,144,5.0,7.0,87,-99.99,,,-99.99,,2013-01-30 06:52:00,
2013-01-30 02:02:00,66.0,62.0,30.13,SE,133,5.0,7.0,88,-99.99,,,-99.99,,2013-01-30 07:02:00,
2013-01-30 02:11:00,66.0,62.0,30.13,SE,133,5.0,7.0,88,-99.99,,,-99.99,,2013-01-30 07:11:00,
2013-01-30 02:22:00,65.0,62.0,30.13,SE,139,4.0,5.0,89,-99.99,,,-99.99,,2013-01-30 07:22:00,
2013-01-30 02:32:00,65.0,62.0,30.12,SE,130,5.0,8.0,89,-99.99,,,-99.99,,2013-01-30 07:32:00,
2013-01-30 02:42:00,65.0,62.0,30.12,SE,134,4.0,6.0,90,-99.99,,,-99.99,,2013-01-30 07:42:00,
2013-01-30 02:52:00,65.0,62.0,30.12,SE,134,4.0,6.0,90,-99.99,,,-99.99,,2013-01-30 07:52:00,
2013-01-30 03:02:00,65.0,62.0,30.11,SE,128,4.0,5.0,90,-99.99,,,-99.99,,2013-01-30 08:02:00,
2013-01-30 03:11:00,64.0,61.0,30.11,SE,127,3.0,5.0,90,-99.99,,,-99.99,,2013-01-30 08:11:00,
2013-01-30 03:22:00,64.0,61.0,30.11,SE,127,3.0,5.0,90,-99.99,,,-99.99,,2013-01-30 08:22:00,
2013-01-30 03:32:00,64.0,61.0,30.11,SE,130,3.0,5.0,91,-99.99,,,-99.99,,2013-01-30 08:32:00,
2013-01-30 03:42:00,63.0,61.0,30.10,SE,133,2.0,4.0,91,-99.99,,,-99.99,,2013-01-30 08:42:00,
2013-01-30 03:52:00,63.0,61.0,30.10,SE,133,2.0,4.0,91,-99.99,,,-99.99,,2013-01-30 08:52:00,
2013-01-30 04:02:00,62.0,60.0,30.10,SE,129,2.0,3.0,91,-99.99,,,-99.99,,2013-01-30 09:02:00,
2013-01-30 04:11:00,62.0,60.0,30.10,SE,129,2.0,3.0,91,-99.99,,,-99.99,,2013-01-30 09:11:00,
2013-01-30 04:22:00,61.0,59.0,30.09,SE,129,2.0,3.0,92,-99.99,,,-99.99,,2013-01-30 09:22:00,
2013-01-30 04:32:00,61.0,59.0,30.09,SE,129,2.0,3.0,92,-99.99,,,-99.99,,2013-01-30 09:32:00,
2013-01-30 04:42:00,61.0,59.0,30.09,ESE,123,3.0,4.0,93,-99.99,,,-99.99,,2013-01-30 09:42:00,
2013-01-30 04:52:00,61.0,59.0,30.09,ESE,123,3.0,4.0,93,-99.99,,,-99.99,,2013-01-30 09:52:00,
2013-01-30 05:01:00,61.0,59.0,30.09,ESE,123,2.0,3.0,93,-99.99,,,-99.99,,2013-01-30 10:01:00,
2013-01-30 05:12:00,61.0,59.0,30.09,ESE,123,2.0,3.0,93,-99.99,,,-99.99,,2013-01-30 10:12:00,
2013-01-30 05:21:00,61.0,59.0,30.09,ESE,115,2.0,2.0,93,-99.99,,,-99.99,,2013-01-30 10:21:00,
2013-01-30 05:32:00,61.0,59.0,30.09,SSE,156,2.0,3.0,93,-99.99,,,-99.99,,2013-01-30 10:32:00,
2013-01-30 05:42:00,61.0,59.0,30.08,SSE,147,2.0,5.0,93,-99.99,,,-99.99,,2013-01-30 10:42:00,
2013-01-30 05:52:00,61.0,59.0,30.08,SSE,147,2.0,5.0,93,-99.99,,,-99.99,,2013-01-30 10:52:00,
2013-01-30 06:02:00,61.0,60.0,30.08,SSE,152,5.0,8.0,93,-99.99,,,-99.99,,2013-01-30 11:02:00,
2013-01-30 06:11:00,61.0,60.0,30.08,SSE,152,5.0,8.0,93,-99.99,,,-99.99,,2013-01-30 11:11:00,
2013-01-30 06:22:00,64.0,62.0,30.08,SSE,156,5.0,8.0,94,-99.99,,,-99.99,,2013-01-30 11:22:00,
2013-01-30 06:33:00,64.0,62.0,30.08,SE,146,4.0,7.0,93,-99.99,,,-99.99,,2013-01-30 11:33:00,
2013-01-30 06:42:00,63.0,61.0,30.08,SE,145,4.0,7.0,93,-99.99,,,-99.99,,2013-01-30 11:42:00,
2013-01-30 06:52:00,63.0,61.0,30.08,SE,145,4.0,7.0,93,-99.99,,,-99.99,,2013-01-30 11:52:00,
2013-01-30 07:02:00,63.0,61.0,30.08,SE,145,5.0,7.0,93,-99.99,,,-99.99,,2013-01-30 12:02:00,
2013-01-30 07:12:00,63.0,61.0,30.08,SE,145,5.0,7.0,93,-99.99,,,-99.99,,2013-01-30 12:12:00,
2013-01-30 07:22:00,63.0,61.0,30.08,SE,139,5.0,8.0,93,-99.99,,,-99.99,,2013-01-30 12:22:00,
2013-01-30 07:33:00,64.0,62.0,30.08,SE,141,6.0,9.0,93,-99.99,,,-99.99,,2013-01-30 12:33:00,
2013-01-30 07:43:00,64.0,62.0,30.08,SSE,147,5.0,9.0,93,-99.99,,,-99.99,,2013-01-30 12:43:00,
2013-01-30 08:03:00,64.0,62.0,30.08,SSE,152,6.0,11.0,93,-99.99,,,-99.99,,2013-01-30 13:03:00,
2013-01-30 08:12:00,64.0,62.0,30.08,SSE,152,6.0,11.0,93,-99.99,,,-99.99,,2013-01-30 13:12:00,
2013-01-30 08:23:00,65.0,63.0,30.08,SSE,147,7.0,11.0,92,-99.99,,,-99.99,,2013-01-30 13:23:00,
2013-01-30 08:33:00,66.0,63.0,30.08,SSE,147,7.0,11.0,90,-99.99,,,-99.99,,2013-01-30 13:33:00,
2013-01-30 08:43:00,67.0,63.0,30.08,SSE,153,8.0,16.0,87,-99.99,,,-99.99,,2013-01-30 13:43:00,
2013-01-30 08:53:00,68.0,63.0,30.08,SSE,147,8.0,13.0,84,-99.99,,,-99.99,,2013-01-30 13:53:00,
2013-01-30 09:03:00,68.0,63.0,30.08,SSE,147,8.0,13.0,84,-99.99,,,-99.99,,2013-01-30 14:03:00,
2013-01-30 09:12:00,68.0,63.0,30.08,SSE,147,8.0,13.0,84,-99.99,,,-99.99,,2013-01-30 14:12:00,
2013-01-30 09:23:00,69.0,64.0,30.07,SE,145,10.0,15.0,82,-99.99,,,-99.99,,2013-01-30 14:23:00,
2013-01-30 09:33:00,69.0,64.0,30.07,SE,145,10.0,15.0,82,-99.99,,,-99.99,,2013-01-30 14:33:00,
2013-01-30 09:42:00,71.0,64.0,30.08,SSE,161,10.0,16.0,77,-99.99,,,-99.99,,2013-01-30 14:42:00,
2013-01-30 09:53:00,71.0,64.0,30.08,SSE,161,10.0,16.0,77,-99.99,,,-99.99,,2013-01-30 14:53:00,
2013-01-30 10:03:00,72.0,64.0,30.07,SSE,159,10.0,16.0,75,-99.99,,,-99.99,,2013-01-30 15:03:00,
2013-01-30 10:12:00,72.0,64.0,30.07,SSE,159,10.0,16.0,75,-99.99,,,-99.99,,2013-01-30 15:12:00,
2013-01-30 10:23:00,73.0,64.0,30.07,SSE,162,10.0,17.0,73,-99.99,,,-99.99,,2013-01-30 15:23:00,
2013-01-30 10:33:00,74.0,64.0,30.07,SSE,158,13.0,19.0,71,-99.99,,,-99.99,,2013-01-30 15:33:00,
2013-01-30 10:43:00,74.0,63.0,30.06,SSE,159,13.0,24.0,68,-99.99,,,-99.99,,2013-01-30 15:43:00,
2013-01-30 10:53:00,75.0,63.0,30.06,South,169,15.0,24.0,64,-99.99,,,-99.99,,2013-01-30 15:53:00,
2013-01-30 11:03:00,75.0,63.0,30.06,South,169,15.0,24.0,64,-99.99,,,-99.99,,2013-01-30 16:03:00,
2013-01-30 11:12:00,76.0,63.0,30.06,SSE,167,16.0,23.0,63,-99.99,,,-99.99,,2013-01-30 16:12:00,
2013-01-30 11:23:00,76.0,63.0,30.06,SSE,167,16.0,23.0,63,-99.99,,,-99.99,,2013-01-30 16:23:00,
2013-01-30 11:32:00,77.0,63.0,30.04,SSE,159,15.0,25.0,61,-99.99,,,-99.99,,2013-01-30 16:32:00,
2013-01-30 11:42:00,77.0,63.0,30.04,SSE,159,15.0,25.0,61,-99.99,,,-99.99,,2013-01-30 16:42:00,
2013-01-30 11:52:00,78.0,63.0,30.03,SSE,167,15.0,22.0,59,-99.99,,,-99.99,,2013-01-30 16:52:00,
2013-01-30 12:03:00,78.0,63.0,30.03,SSE,167,15.0,22.0,59,-99.99,,,-99.99,,2013-01-30 17:03:00,
2013-01-30 12:13:00,79.0,63.0,30.03,South,171,12.0,19.0,57,-99.99,,,-99.99,,2013-01-30 17:13:00,
2013-01-30 12:23:00,79.0,63.0,30.03,South,171,12.0,19.0,57,-99.99,,,-99.99,,2013-01-30 17:23:00,
2013-01-30 12:33:00,79.0,63.0,30.03,South,171,12.0,19.0,57,-99.99,,,-99.99,,2013-01-30 17:33:00,
2013-01-30 12:43:00,79.0,62.0,30.02,SSE,165,13.0,26.0,55,-99.99,,,-99.99,,2013-01-30 17:43:00,
2013-01-30 12:53:00,80.0,62.0,30.02,SSE,164,15.0,22.0,53,-99.99,,,-99.99,,2013-01-30 17:53:00,
2013-01-30 13:03:00,80.0,62.0,30.01,SSE,161,13.0,19.0,53,-99.99,,,-99.99,,2013-01-30 18:03:00,
2013-01-30 13:13:00,80.0,62.0,30.01,SSE,161,13.0,19.0,53,-99.99,,,-99.99,,2013-01-30 18:13:00,
2013-01-30 13:23:00,80.0,62.0,30.00,SSE,165,14.0,22.0,52,-99.99,,,-99.99,,2013-01-30 18:23:00,
2013-01-30 13:33:00,81.0,62.0,30.00,South,180,14.0,21.0,52,-99.99,,,-99.99,,2013-01-30 18:33:00,
2013-01-30 13:43:00,82.0,62.0,30.00,South,187,13.0,21.0,50,-99.99,,,-99.99,,2013-01-30 18:43:00,
2013-01-30 13:53:00,81.0,62.0,30.01,South,187,13.0,18.0,51,-99.99,,,-99.99,,2013-01-30 18:53:00,
2013-01-30 14:03:00,81.0,62.0,30.01,South,187,13.0,18.0,51,-99.99,,,-99.99,,2013-01-30 19:03:00,
2013-01-30 14:13:00,81.0,62.0,29.99,SSE,168,13.0,20.0,52,-99.99,,,-99.99,,2013-01-30 19:13:00,
2013-01-30 14:22:00,81.0,62.0,29.99,SSE,168,13.0,20.0,52,-99.99,,,-99.99,,2013-01-30 19:22:00,
2013-01-30 14:33:00,82.0,62.0,29.98,SSE,166,13.0,20.0,50,-99.99,,,-99.99,,2013-01-30 19:33:00,
2013-01-30 14:43:00,82.0,61.0,29.98,SSE,166,13.0,22.0,49,-99.99,,,-99.99,,2013-01-30 19:43:00,
2013-01-30 14:53:00,82.0,61.0,29.98,SSE,166,13.0,22.0,49,-99.99,,,-99.99,,2013-01-30 19:53:00,
2013-01-30 15:03:00,82.0,61.0,29.98,South,172,13.0,17.0,48,-99.99,,,-99.99,,2013-01-30 20:03:00,
2013-01-30 15:12:00,82.0,61.0,29.98,South,172,13.0,17.0,48,-99.99,,,-99.99,,2013-01-30 20:12:00,
2013-01-30 15:22:00,83.0,61.0,29.97,South,172,13.0,18.0,47,-99.99,,,-99.99,,2013-01-30 20:22:00,
2013-01-30 15:33:00,83.0,61.0,29.97,SSE,167,13.0,17.0,46,-99.99,,,-99.99,,2013-01-30 20:33:00,
2013-01-30 15:42:00,83.0,60.0,29.96,South,174,12.0,19.0,45,-99.99,,,-99.99,,2013-01-30 20:42:00,
2013-01-30 15:53:00,83.0,60.0,29.96,South,174,12.0,19.0,45,-99.99,,,-99.99,,2013-01-30 20:53:00,
2013-01-30 16:04:00,83.0,60.0,29.96,South,171,12.0,18.0,45,-99.99,,,-99.99,,2013-01-30 21:04:00,
2013-01-30 16:12:00,83.0,60.0,29.96,South,171,12.0,18.0,45,-99.99,,,-99.99,,2013-01-30 21:12:00,
2013-01-30 16:23:00,83.0,60.0,29.95,South,169,13.0,18.0,45,-99.99,,,-99.99,,2013-01-30 21:23:00,
2013-01-30 16:32:00,83.0,60.0,29.96,South,180,13.0,21.0,44,-99.99,,,-99.99,,2013-01-30 21:32:00,
2013-01-30 16:43:00,83.0,60.0,29.96,South,180,13.0,21.0,44,-99.99,,,-99.99,,2013-01-30 21:43:00,
2013-01-30 16:53:00,83.0,59.0,29.95,SSW,197,11.0,20.0,45,-99.99,,,-99.99,,2013-01-30 21:53:00,
2013-01-30 17:03:00,83.0,59.0,29.95,SSW,197,11.0,20.0,45,-99.99,,,-99.99,,2013-01-30 22:03:00,
2013-01-30 17:12:00,83.0,60.0,29.95,SSW,195,9.0,15.0,45,-99.99,,,-99.99,,2013-01-30 22:12:00,
2013-01-30 17:22:00,83.0,60.0,29.95,SSW,195,9.0,15.0,45,-99.99,,,-99.99,,2013-01-30 22:22:00,
2013-01-30 17:32:00,82.0,59.0,29.95,SSW,200,11.0,17.0,45,-99.99,,,-99.99,,2013-01-30 22:32:00,
2013-01-30 17:42:00,82.0,59.0,29.94,SSW,197,11.0,19.0,45,-99.99,,,-99.99,,2013-01-30 22:42:00,
2013-01-30 17:53:00,82.0,59.0,29.94,SSW,197,11.0,19.0,45,-99.99,,,-99.99,,2013-01-30 22:53:00,
2013-01-30 18:02:00,82.0,59.0,29.94,SSW,197,11.0,19.0,45,-99.99,,,-99.99,,2013-01-30 23:02:00,
2013-01-30 18:12:00,82.0,59.0,29.94,SSW,197,11.0,19.0,45,-99.99,,,-99.99,,2013-01-30 23:12:00,